Content
SEND FEEDBACK

Daily
Averages
Monthly
Summary
Canada

VANCOUVER, BRITISH COLUMBIA


Home > North America > Canada > British Columbia
Elevation: 7 feet     Latitude: 49 11N     Longitude: 123 10W

WEATHER
 
SELECT A DAY
Number of Records: 249,842;   Date Range: 5/15/97 - 9/17/14
 
SHARE

PRINT THIS DATA

[ ← Previous Day ]
WEATHER ALMANAC - JANUARY 15, 2013
[ Next Day → ]
[ °C ]   °F
Weather ElementAverageHighLow
Temperature37.1 °F39.2 °F (10:55 am)32 °F (7:15 am)
Dewpoint32.2 °F33.8 °F (10:15 am)32 °F (12:35 am)
Humidity82.8 %100 % (7:15 am)75 % (10:55 am)
Barometer30.66 in30.70 in (10:35 am)30.57 in (12:35 am)

Weather ElementAverage
Weather ElementTotal
Precipitation---
Heating Degree Days29.4 (Base 65)
Averaged from 66 records on January 15, 2013
WEATHER CONDITIONS BREAKOUT
WIND DIRECTION BREAKOUT
WEATHER BY HOUR - JANUARY 15, 2013
[ °C ]   °F
Local TimeTemperatureDewpointHumidityBarometerVisibilityWind DirectionWind SpeedGust SpeedPrecipitationEventsConditions
12:35 AM35.6 °F32.0 °F87 %30.57 in10.0 miNorthOvercast
12:55 AM35.6 °F32.0 °F87 %30.58 in10.0 miCalmOvercast
1:15 AM35.6 °F32.0 °F87 %30.59 in10.0 miCalmMostly Cloudy
1:35 AM37.4 °F32.0 °F81 %30.60 in10.0 miCalmOvercast
1:55 AM37.4 °F32.0 °F81 %30.60 in10.0 miCalmOvercast
2:15 AM37.4 °F32.0 °F81 %30.60 in10.0 miCalmOvercast
2:55 AM37.4 °F32.0 °F81 %30.62 in10.0 miCalmOvercast
3:15 AM37.4 °F32.0 °F81 %30.62 in10.0 miCalmOvercast
3:35 AM37.4 °F32.0 °F81 %30.62 in10.0 miCalmOvercast
3:55 AM35.6 °F32.0 °F87 %30.62 in10.0 miCalmOvercast
4:15 AM35.6 °F32.0 °F87 %30.62 in10.0 miCalmOvercast
4:35 AM35.6 °F32.0 °F87 %30.62 in10.0 miCalmOvercast
4:55 AM35.6 °F32.0 °F87 %30.62 in10.0 miCalmOvercast
5:15 AM33.8 °F32.0 °F93 %30.62 in10.0 miCalmOvercast
5:35 AM33.8 °F32.0 °F93 %30.62 in10.0 miCalmOvercast
5:55 AM33.8 °F32.0 °F93 %30.62 in10.0 miCalmOvercast
6:15 AM33.8 °F32.0 °F93 %30.63 in10.0 miCalmOvercast
6:35 AM33.8 °F32.0 °F93 %30.64 in10.0 miCalmOvercast
6:55 AM33.8 °F32.0 °F93 %30.64 in10.0 miCalmOvercast
7:15 AM32.0 °F32.0 °F100 %30.65 in10.0 miCalmOvercast
7:35 AM32.0 °F32.0 °F100 %30.66 in10.0 miCalmOvercast
8:15 AM35.6 °F32.0 °F87 %30.66 in10.0 miCalmOvercast
8:35 AM35.6 °F32.0 °F87 %30.67 in10.0 miCalmOvercast
8:55 AM35.6 °F32.0 °F87 %30.67 in10.0 miCalmOvercast
9:15 AM37.4 °F32.0 °F81 %30.68 in10.0 miCalmOvercast
9:35 AM37.4 °F32.0 °F81 %30.69 in10.0 miCalmOvercast
9:55 AM37.4 °F32.0 °F81 %30.69 in10.0 miCalmOvercast
10:15 AM37.4 °F33.8 °F87 %30.69 in10.0 miCalmOvercast
10:35 AM37.4 °F32.0 °F81 %30.70 in10.0 miCalmOvercast
10:55 AM39.2 °F32.0 °F75 %30.70 in10.0 miCalmOvercast
11:15 AM39.2 °F32.0 °F75 %30.70 in10.0 miCalmOvercast
11:55 AM39.2 °F32.0 °F75 %30.69 in10.0 miCalmMostly Cloudy
12:15 PM39.2 °F32.0 °F75 %30.69 in10.0 miCalmMostly Cloudy
12:35 PM39.2 °F32.0 °F75 %30.69 in10.0 miCalmOvercast
12:55 PM39.2 °F32.0 °F75 %30.68 in10.0 miCalmOvercast
1:15 PM39.2 °F32.0 °F75 %30.68 in10.0 miCalmOvercast
1:35 PM39.2 °F32.0 °F75 %30.68 in10.0 miCalmMostly Cloudy
1:55 PM39.2 °F32.0 °F75 %30.68 in10.0 miCalmMostly Cloudy
2:15 PM39.2 °F32.0 °F75 %30.68 in10.0 miCalmOvercast
2:35 PM39.2 °F32.0 °F75 %30.68 in10.0 miCalmOvercast
2:55 PM39.2 °F32.0 °F75 %30.69 in10.0 miCalmOvercast
3:15 PM39.2 °F32.0 °F75 %30.69 in10.0 miCalmOvercast
3:35 PM39.2 °F32.0 °F75 %30.69 in10.0 miCalmOvercast
3:55 PM39.2 °F32.0 °F75 %30.68 in10.0 miCalmOvercast
4:15 PM39.2 °F32.0 °F75 %30.68 in10.0 miCalmOvercast
4:35 PM39.2 °F32.0 °F75 %30.68 in10.0 miCalmOvercast
4:55 PM39.2 °F32.0 °F75 %30.69 in10.0 miCalmOvercast
5:15 PM37.4 °F32.0 °F81 %30.69 in10.0 miCalmOvercast
5:35 PM37.4 °F32.0 °F81 %30.68 in10.0 miCalmOvercast
5:55 PM37.4 °F32.0 °F81 %30.68 in10.0 miCalmOvercast
6:15 PM37.4 °F32.0 °F81 %30.68 in10.0 miCalmOvercast
6:35 PM37.4 °F32.0 °F81 %30.68 in10.0 miCalmOvercast
6:55 PM37.4 °F32.0 °F81 %30.68 in10.0 miCalmOvercast
7:15 PM37.4 °F32.0 °F81 %30.68 in10.0 miCalmOvercast
7:35 PM37.4 °F32.0 °F81 %30.68 in10.0 miCalmOvercast
7:55 PM37.4 °F32.0 °F81 %30.68 in10.0 miCalmOvercast
8:15 PM37.4 °F32.0 °F81 %30.68 in10.0 miCalmOvercast
8:35 PM35.6 °F32.0 °F87 %30.68 in10.0 miCalmOvercast
8:55 PM37.4 °F33.8 °F87 %30.68 in10.0 miCalmOvercast
9:15 PM37.4 °F33.8 °F87 %30.67 in10.0 miCalmOvercast
9:35 PM37.4 °F33.8 °F87 %30.67 in10.0 miCalmOvercast
9:55 PM37.4 °F33.8 °F87 %30.67 in10.0 miCalmOvercast
10:15 PM37.4 °F33.8 °F87 %30.67 in10.0 miCalmOvercast
10:55 PM37.4 °F33.8 °F87 %30.67 in10.0 miCalmOvercast
11:15 PM37.4 °F33.8 °F87 %30.67 in10.0 miCalmOvercast
11:35 PM37.4 °F33.8 °F87 %30.67 in10.0 miCalmOvercast
Hourly data recorded from CZBB, located miles away from Vancouver, British Columbia







STORIES FROM OUR PARTNERS